Terug naar catalogus

ATLAS 5 CENTAUR DEB

LostHEO
NORAD 46869·DEBRIS·🇺🇸 United States

Gelanceerd Oct 17, 2018 vanaf Cape Canaveral Space Force Station

Loading…

Volgende Passages (komende 24 uur)

TLE

VerouderdSource: Space-Track

Epoch: Aug 3, 2026, 12:59 UTC

1 46869U 18079EA  26215.54138956 -.00000101  00000-0  00000-0 0  9998
2 46869  13.3523  29.4352 4663369 328.0316  10.5357  1.83277249 38507

Volg ATLAS 5 CENTAUR DEB in realtime met AllMySat

Download on the App Store